Showing default

KSM1-D, 46907

Orbit data source: Space-Track

KSM1-D, 46907 is a payload satellite owned by Kleos Space (LU) in LEO that was launched on Sat, 07 Nov 2020 UTC via a PSLV-DL launch vehicle from the Sirharikota (SRI). Payload-class satellites include a variety of spacecraft equipped with specific instruments for various scientific and technological missions. These include communications satellites like Starlink; space stations such as the ISS; scientific satellites like the Hubble; Earth observation satellites from companies like Planet Labs, Umbra, and HawkEye 360; GPS; miniature CubeSats for education and research; and military/defense satellites.

Loading next visibility...
Identifier
46907, 2020-081C
Orbit
LEO
Last TLE update
8 hours ago
Origin
Manufacturer
GOMSpace
Mission
Operational Commercial Sigint
Bus & Motor
CUBESAT 6U, Unknown motor
Mass
~10 kg wet, ~10 kg dry
Launch date (UTC)
2020-11-07 (5 years ago)
Launch vehicle
PSLV-DL
Launch site
Sirharikota (SRI)
Object type
Payload
Rocket body
Debris
Shape & HBR
Box, 0.3 m
Radar Cross Section
0.080 m², Medium (>0.1 m² and < 1m²)

Expand to show TLE details & history

TLE from 8 hours ago
0 KSM1-D
1 46907U 20081C   25186.59148177  .00005544  00000-0  27003-3 0  9994
2 46907  36.8981  30.3554 0005337 237.2208 122.8024 15.18111767256285
Epoch: 2025-07-05T14:11Z
TLE epoch observation values (Epoch: 2025-07-05T14:11:44.024Z)
Latitude
-0.00007°
Longitude
-106.40545°
Altitude
512.65 km
Speed
7.609 km/s
True Right ascension
02h 01m 25s
True Declination
0° 00' 00"
Sunlit
Object was in daylight at epoch
Visualization orbit readout
Latitude
13.83542°
Longitude
-89.39473°
Altitude
512.852 km
Speed
7.609 km/s
Apparent Right ascension
01h 05m 50s
Apparent Declination
-14° 45' 48"
Sunlit
Object is in daylight
Visualization observer readout
Local Sidereal Time
10:07:34
Azimuth
289.973° WNW
Elevation
-43.782°
Doppler factor
1
Orbital elements
Apogee altitude
518.167 km
Perigee altitude
510.81 km
Semi-major axis
6,892.626 km
Eccentricity
0.00053
Inclination
36.8981°
RAAN
30.3554°
Arg. of periapsis
237.2208°
True anomaly
Unknown
Mean anomaly
122.8024°
Eccentric anomaly
Unknown
Mean motion
3.79285 °/min
Orbital period
94.92 mins
BSTAR
0.00027003
Loading maneuver chart data...
Loading SW <> Apogee altitude chart data...
Loading historical data...
Loading historical data...
Loading historical data...
Loading historical data...
Loading historical data...
Loading historical data...
Loading historical data...

KSM1-D Visibility forecast

Observer location: undefined°, undefined°

Span
Click to sort rows by Start time (UTC) header in descending order
Start Az.
Max El. time (UTC)
Max El. Az.
Max El.
End time (UTC)
End Az.
5 mins2025-07-05 22:34:25.388Z247.5° W2025-07-05 22:36:25.388Z212.83° SW19.502°2025-07-05 22:39:25.388Z158.287° S
5 mins2025-07-06 17:16:25.388Z207.683° SW2025-07-06 17:18:25.388Z168.477° S24.037°2025-07-06 17:21:25.388Z107.055° ESE
5 mins2025-07-06 18:56:25.388Z240.555° WSW2025-07-06 18:58:25.388Z176.694° S38.288°2025-07-06 19:01:25.388Z101.721° ESE
5 mins2025-07-06 20:36:25.388Z249.045° W2025-07-06 20:38:25.388Z183.362° SSW35.225°2025-07-06 20:41:25.388Z120.656° SE
|